This is the latest recevied weather packets stored in our database for station/object KD8DLP-13. If no packets are shown the sender has not sent any weather packets the latest 10 day(s).
| Time | Temp. | Humidity | Pressure | Rain* | Wind** | Luminosity | Snow |
|---|---|---|---|---|---|---|---|
| 1777726124 | 6.11° C | 75% | 1020.5 hPa | 0 mm | - | 235 W/m² | - |
| 1777725821 | 6.11° C | 76% | 1020.5 hPa | 0 mm | - | 88 W/m² | - |
| 1777725519 | 6.67° C | 76% | 1020.4 hPa | 0 mm | - | 205 W/m² | - |
| 1777725216 | 6.67° C | 78% | 1020.6 hPa | 0 mm | - | 193 W/m² | - |
| 1777724913 | 6.67° C | 79% | 1020.5 hPa | 0 mm | - | 178 W/m² | - |
| 1777724608 | 5.56° C | 82% | 1020.3 hPa | 0 mm | - | 165 W/m² | - |
| 1777724307 | 5.56° C | 84% | 1020.4 hPa | 0 mm | - | 146 W/m² | - |
| 1777724004 | 5.56° C | 84% | 1020.6 hPa | 0 mm | - | 120 W/m² | - |
| 1777723701 | 5° C | 86% | 1020.4 hPa | 0 mm | - | 102 W/m² | - |
| 1777723397 | 3.89° C | 89% | 1020.5 hPa | 0 mm | - | 56 W/m² | - |
| 1777723095 | 3.33° C | 90% | 1020.6 hPa | 0 mm | - | 70 W/m² | - |
| 1777722792 | 2.78° C | 92% | 1020.5 hPa | 0 mm | - | 69 W/m² | - |
| 1777722488 | 2.22° C | 92% | 1020.3 hPa | 0 mm | - | 80 W/m² | - |
| 1777722185 | 1.67° C | 92% | 1020.1 hPa | 0 mm | - | 52 W/m² | - |
| 1777721882 | 1.11° C | 93% | 1020.3 hPa | 0 mm | - | 74 W/m² | - |
| 1777721580 | 0.56° C | 93% | 1020.3 hPa | 0 mm | - | 68 W/m² | - |
| 1777721278 | 0° C | 93% | 1020.2 hPa | 0 mm | - | 39 W/m² | - |
| 1777720975 | 0° C | 92% | 1020.2 hPa | 0 mm | - | 30 W/m² | - |
| 1777720672 | -0.56° C | 92% | 1020 hPa | 0 mm | - | 24 W/m² | - |
| 1777720370 | -0.56° C | 92% | 1020.3 hPa | 0 mm | - | 22 W/m² | - |
| 1777720067 | -0.56° C | 92% | 1020.4 hPa | 0 mm | - | 17 W/m² | - |
| 1777719765 | -0.56° C | 91% | 1020.1 hPa | 0 mm | - | 14 W/m² | - |
| 1777719463 | -0.56° C | 91% | 1019.9 hPa | 0 mm | - | 11 W/m² | - |
| 1777719159 | -0.56° C | 91% | 1020.2 hPa | 0 mm | - | 9 W/m² | - |
| 1777718857 | -0.56° C | 91% | 1020 hPa | 0 mm | - | 7 W/m² | - |
* Rain latest hour (hover to see other rain measurements)
** Current wind speed in m/s (hover to see current wind gust speed)